Flag for Canada Weather past 2 weeks in Kawartha Lakes, Ontario, Canada

Now
6 °F

Frigid.


Feels Like: -5 °F
Forecast: -7 / 9 °F
Wind: 6 mph from West

Location: Lagoon City

Current Time: Feb 27, 2015 at 12:54:37 PM

Latest Report: Feb 27, 2015 at 12:00 PM


Visibility: N/A

Pressure: 30.48 "Hg

Humidity: 68%

Dew point: -2 °F

Location of Kawartha LakesLocation

Historic Weather in Kawartha Lakes — Graph

°F

Kawartha Lakes temperature yesterday

Maximum temperature yesterday: 10 °F (at 2:00 PM)
Minimum temperature yesterday: -15 °F (at 5:00 AM)
Average temperature yesterday: -2 °F

Past Weeks' High & Low Weather Summary

 TemperatureHumidityPressure
High19 °F (Feb 22, 12:00 PM)99% (Feb 14, 7:00 AM)30.54 "Hg (Feb 14, 7:00 AM)
Low-23 °F (Feb 16, 8:00 AM)36% (Feb 16, 5:00 PM)29.54 "Hg (Feb 25, 3:00 AM)
Average0 °F71%30.07 "Hg
* Reported Feb 12 11:00 AM — Feb 27 11:00 AM, Kawartha Lakes, Weather by CustomWeather, © 2015

Note: Actual official high and low records may vary slightly from our data, if they occured in-between our weather recording intervals... More about our weather records

Advertising

Kawartha Lakes weather history for previous 24 hours

 ConditionsComfort  
Time TempWeatherWind HumidityBarometerVisibility
11:00 AM
Fri, Feb 27
0 °FFrigid.5 mph77%30.47 "HgN/A
10:00 AM-4 °FFrigid.2 mph81%30.46 "HgN/A
9:00 AM-8 °FFrigid.2 mph84%30.45 "HgN/A
8:00 AM-13 °FExtremely cold.3 mph79%30.43 "HgN/A
7:00 AM-13 °FExtremely cold.3 mph82%30.41 "HgN/A
6:00 AM-14 °FExtremely cold.2 mph79%30.37 "HgN/A
5:00 AM-14 °FExtremely cold.1 mph80%30.35 "HgN/A
4:00 AM-14 °FExtremely cold.2 mph80%30.34 "HgN/A
3:00 AM-13 °FExtremely cold.1 mph81%30.33 "HgN/A
2:00 AM-9 °FFrigid.2 mph83%30.32 "HgN/A
1:00 AM-8 °FFrigid.3 mph84%30.30 "HgN/A
12:00 AM-3 °FFrigid.No wind78%30.28 "HgN/A
11:00 PM
Thu, Feb 26
-1 °FFrigid.6 mph77%30.27 "HgN/A
10:00 PM-1 °FFrigid.8 mph75%30.27 "HgN/A
9:00 PM0 °FFrigid.10 mph73%30.25 "HgN/A
8:00 PM1 °FFrigid.14 mph71%30.23 "HgN/A
7:00 PM2 °FFrigid.12 mph64%30.21 "HgN/A
6:00 PM5 °FFrigid.14 mph55%30.19 "HgN/A
5:00 PM7 °FFrigid.16 mph52%30.17 "HgN/A
4:00 PM9 °FFrigid.13 mph54%30.15 "HgN/A
3:00 PM9 °FFrigid.10 mph59%30.14 "HgN/A
2:00 PM10 °FFrigid.8 mph50%30.15 "HgN/A
1:00 PM6 °FFrigid.9 mph61%30.16 "HgN/A
12:00 PM8 °FFrigid.7 mph53%30.17 "HgN/A
Weather by CustomWeather, © 2015

See weather overviewHow to use our weather pages